Location: *
(38.3914°N, 75.0697°W)
Time: 23:01:58
(UTC+00:00)

STARLINK-1074 - Pass Details

Date: 17 February 2020
Orbit: 374 x 385 km, 53.0° (Epoch: 05 April)

Event Time Altitude Azimuth Distance (km) Brightness Sun altitude
Exits shadow 09:57:20 45° 93° (E) 537 4.0 -22.5°
Drops below altitude 10° 09:59:50 10° 57° (ENE) 1,408 6.5 -22.0°
Enters shadow 10:56:07 -68° 232° (SW) 12,215 10.4 -11.0°
